Regional Weather Roundup
Issued by NWS

Home | Current Version | Previous Version | Text Only | Print | Product List | Glossary On
Versions: 1 2 3 4 5 6 7 8 9 10 11 12 13 14 15 16 17 18 19 20 21 22 23 24 25 26 27 28 29 30 31 32 33 34 35 36 37 38 39 40 41 42 43 44 45 46 47 48 49 50
000
ASUS44 KMEG 260510
RWRTN
TENNESSEE HOURLY STATE WEATHER ROUNDUP
NATIONAL WEATHER SERVICE MEMPHIS TN
1200 AM CDT THU MAY 26 2016

TNZ002-004-019-021-049-052-054-088>092-260600-
WEST TENNESSEE

CITY           SKY/WX    TMP DP  RH WIND       PRES   REMARKS
MEMPHIS INTL   CLEAR     72  63  73 S9        30.05F
NWS MEMPHIS      N/A     68 N/A N/A MISG        N/A
JACKSON        CLEAR     65  61  87 S5        30.07F
DYERSBURG      CLEAR     66  63  88 S9        30.05F
UNION CITY     CLEAR     64  64 100 CALM      30.05F
PARIS          MOCLDY    63  61  94 S7        30.08F
LEXINGTON      CLEAR     63  63 100 CALM      30.08F
$$

TNZ008-025-027-028-033-062-065-066-260600-
NORTH MIDDLE TENNESSEE

CITY           SKY/WX    TMP DP  RH WIND       PRES   REMARKS
NASHVILLE      CLOUDY    67  64  90 CALM      30.10S
CLARKSVILLE    CLOUDY    64  63  96 S3        30.08S
SMYRNA         LGT RAIN  67  67 100 CALM      30.11R
COOKEVILLE     CLEAR     64  63  94 CALM      30.11S
CROSSVILLE     CLEAR     64  57  78 W7        30.16R
$$

TNZ061-075-076-078-094-096-097-260600-
SOUTH MIDDLE TENNESSEE

CITY           SKY/WX    TMP DP  RH WIND       PRES   REMARKS
FAYETTEVILLE   MOCLDY    68  61  77 CALM      30.12S
TULLAHOMA      MOCLDY    70  59  68 S5        30.13S
WINCHESTER     PTCLDY    70  61  73 SE5       30.13S
MCMINNVILLE    PTCLDY    64  64 100 CALM      30.12S
COLUMBIA       MOCLDY    70  70 100 SW3       30.09S
SHELBYVILLE    MOCLDY    68  63  83 E5        30.11F
$$

TNZ017-018-042-046-047-260600-
NORTHEAST TENNESSEE

CITY           SKY/WX    TMP DP  RH WIND       PRES   REMARKS
TRI CITIES     MOCLDY    67  63  87 CALM      30.18F
$$

TNZ012-013-036-069-073-074-260600-
CENTRAL EAST TENNESSEE

CITY           SKY/WX    TMP DP  RH WIND       PRES   REMARKS
KNOXVILLE      PTCLDY    70  60  70 CALM      30.12F
OAK RIDGE      PTCLDY    67  62  84 CALM      30.12F
GATLINBURG     CLEAR     64  61  88 CALM      30.13F
$$

TNZ083-085-099-260600-
SOUTHEAST TENNESSEE

CITY           SKY/WX    TMP DP  RH WIND       PRES   REMARKS
CHATTANOOGA    CLOUDY    73  58  59 SW6       30.13F
$$

SKY/WX REPORTED AS FAIR MEANS FEW OR NO CLOUDS BELOW
12 THOUSAND FEET.





USA.gov is the U.S. government's official web portal to all federal, state and local government web resources and services.